Location: ??????
(38.1303°N, 24.0039°E)
Time: 19:10:40
(UTC+00:00)

Lacrosse 4 Rocket - Pass Details

Date: 20 June 2021
Orbit: 543 x 614 km, 68.0° (Epoch: 27 July)

Event Time Altitude Azimuth Distance (km) Brightness Sun altitude
Rises 01:12:30 0° 326° (NW) 2,727 5.1 -17.0°
Reaches altitude 10° 01:14:48 10° 319° (NW) 1,822 4.1 -16.7°
Maximum altitude 01:18:38 42° 249° (WSW) 787 1.7 -16.3°
Enters shadow 01:19:58 31° 203° (SSW) 973 2.0 -16.1°
